Weather in Ivanivka

Ukraine / Chernihiv Region     52°08′35″N   32°41′55″E
temp.,
°C
wind,
m/s
gust,
m/s
humid.,
%
clouds,
%
prec.,
mm/h
press.,
hPa
HPBL,
m
9 may, sun
sun900:00+4nw71386100 0.3 1013631
03:00+3wnw61484100 0.3 1015482
06:00+1wnw513870 0.0 1017416
09:00+6nw711675 0.0 10191099
12:00+9nw8105199 0.0 10202109
15:00+11nnw7946100 0.0 10212375
18:00+10nnw58545 0.0 10231920
21:00+6nw34700 0.0 102546
10 may, mon
mon1000:00+4nw33715 0.0 102737
03:00+3nnw22705 0.0 102821
06:00+3n22715 0.0 102923
09:00+9n23583 0.0 1029416
12:00+13nne34445 0.0 10291408
15:00+14nne45425 0.0 10281567
18:00+14nne46550 0.0 10271319
21:00+8nne46670 0.0 102874
11 may, tue
tue1100:00+6ne37760 0.0 1027106
03:00+5nne48770 0.0 1027127
06:00+5nne513755 0.0 1026308
09:00+10ne7126673 0.0 1025488
12:00+15ne796227 0.0 1023796
15:00+19ene796163 0.0 10221447
18:00+15e6128392 0.4 1022698
21:00+11ene49941 0.5 1023197
12 may, wed
wed1200:00+9e39966 0.0 1022197
03:00+7ene369197 0.0 1021104
06:00+9ene51092100 0.8 1020410
09:00+11e7107588 0.8 10191245
12:00+12ese71273100 0.2 10191397
15:00+9ese61386100 1.2 10181019
18:00+11ese71281100 0.2 10171140
21:00+9e61388100 0.4 1016542
13 may, thu
thu1300:00+9ese4995100 0.8 1016540
03:00+9se599487 2.6 1014471
06:00+8se5109772 0.6 1015434
09:00+10se578378 0.6 1015542
12:00+15se796981 0.2 10141407
15:00+17sse7962100 0.4 10131631
18:00+17se5871100 0.1 10121073
21:00+13e41291100 0.1 1012265